TVP7203 LTFE-EPWA

Flight info

Callsign TVP7203
Flight time N/A
Altitude 28000
Route DCT AKBUK N128 IMR UN127 LMO DCT ATFIR DCT OVDOT DCT SODGO DCT NEKUL DCT BUXLE DCT MEGIK DCT KEKED DCT RAZEC DCT LENOV DCT ORTEB DCT KONZI DCT LOGDA/N0352F270
Aircraft B38M/M-SDE3FGHIJ1RWXYZ/LB1

Departure

Time 2026-04-26 13:39
Airport Milas Bodrum International Airport (LTFE)

Arrival

Time N/A
Airport Warsaw Chopin Airport (EPWA)
Time Latitude Longitude Altitude Speed Heading
2026-04-26 12:34 37.24375 27.67832 33 ft 0 kts 193°
2026-04-26 13:31 37.24383 27.67835 33 ft 3 kts 188°
2026-04-26 13:31 37.24403 27.67836 33 ft 3 kts 188°
2026-04-26 13:31 37.24420 27.67844 33 ft 3 kts 207°
2026-04-26 13:32 37.24438 27.67856 33 ft 3 kts 206°
2026-04-26 13:32 37.24456 27.67867 33 ft 3 kts 212°
2026-04-26 13:32 37.24466 27.67876 33 ft 1 kts 218°
2026-04-26 13:32 37.24469 27.67879 33 ft 0 kts 218°
2026-04-26 13:36 37.24468 27.67878 33 ft 0 kts 216°
2026-04-26 13:36 37.24463 27.67880 33 ft 4 kts 173°
2026-04-26 13:36 37.24428 27.67955 33 ft 15 kts 106°
2026-04-26 13:37 37.24488 27.68048 33 ft 17 kts 18°
2026-04-26 13:37 37.24608 27.68100 32 ft 13 kts 19°
2026-04-26 13:37 37.24637 27.68111 32 ft 0 kts 15°
2026-04-26 13:37 37.24639 27.68111 32 ft 0 kts 15°
2026-04-26 13:38 37.24641 27.68112 32 ft 0 kts 15°
2026-04-26 13:38 37.24650 27.68115 32 ft 5 kts 15°
2026-04-26 13:38 37.24726 27.68125 32 ft 9 kts 313°
2026-04-26 13:38 37.24752 27.68037 34 ft 16 kts 286°
2026-04-26 13:39 37.24843 27.67654 35 ft 87 kts 286°
2026-04-26 13:39 37.25093 27.66612 40 ft 157 kts 284°
2026-04-26 13:39 37.25468 27.65168 408 ft 188 kts 286°
2026-04-26 13:39 37.25885 27.63630 1319 ft 183 kts 289°
2026-04-26 13:40 37.26302 27.62088 2240 ft 188 kts 288°
2026-04-26 13:40 37.26697 27.60514 3298 ft 188 kts 289°
2026-04-26 13:40 37.27085 27.58868 4059 ft 206 kts 286°
2026-04-26 13:40 37.27457 27.57035 4799 ft 229 kts 286°
2026-04-26 13:41 37.27888 27.55015 5519 ft 249 kts 288°
2026-04-26 13:41 37.28376 27.52834 6251 ft 268 kts 288°
2026-04-26 13:41 37.28894 27.50557 7105 ft 278 kts 288°
2026-04-26 13:41 37.29510 27.48237 8170 ft 282 kts 298°
2026-04-26 13:42 37.30762 27.46374 9206 ft 282 kts 325°
2026-04-26 13:42 37.32555 27.45363 10152 ft 287 kts 349°
2026-04-26 13:42 37.34587 27.45235 10917 ft 299 kts
2026-04-26 13:42 37.36700 27.45323 11835 ft 306 kts
2026-04-26 13:43 37.38833 27.45426 12948 ft 308 kts
2026-04-26 13:43 37.40993 27.45541 14012 ft 313 kts
2026-04-26 13:43 37.43194 27.45663 14901 ft 323 kts
2026-04-26 13:43 37.45509 27.45795 15455 ft 343 kts
2026-04-26 13:44 37.47941 27.45936 16149 ft 355 kts
2026-04-26 13:44 37.50386 27.45577 17228 ft 355 kts 343°
2026-04-26 13:44 37.52670 27.44409 18324 ft 354 kts 338°
2026-04-26 13:44 37.54933 27.43167 19241 ft 355 kts 338°
2026-04-26 13:45 37.57199 27.41898 20177 ft 355 kts 338°
2026-04-26 13:45 37.59453 27.40620 21089 ft 356 kts 338°
2026-04-26 13:45 37.61708 27.39331 22014 ft 356 kts 338°
2026-04-26 13:45 37.63958 27.38088 22861 ft 358 kts 339°
2026-04-26 13:46 37.66247 27.36846 23731 ft 358 kts 339°
2026-04-26 13:46 37.68533 27.35600 24533 ft 357 kts 339°
2026-04-26 13:46 37.70813 27.34354 25342 ft 357 kts 339°
2026-04-26 13:46 37.73091 27.33108 26144 ft 356 kts 339°
2026-04-26 13:47 37.75362 27.31865 26928 ft 355 kts 340°
2026-04-26 13:47 37.77629 27.30623 27647 ft 356 kts 340°
2026-04-26 13:47 37.79914 27.29370 27900 ft 358 kts 340°
2026-04-26 13:47 37.82174 27.28129 27946 ft 353 kts 340°
2026-04-26 13:48 37.84433 27.26890 27943 ft 352 kts 340°
2026-04-26 13:48 37.86686 27.25651 27938 ft 353 kts 340°
2026-04-26 13:48 37.88173 27.24834 27937 ft 353 kts 340°
2026-04-26 13:48 37.90429 27.23593 27937 ft 353 kts 340°
2026-04-26 13:49 37.92686 27.22351 27939 ft 354 kts 339°
2026-04-26 13:49 37.94944 27.21107 27940 ft 354 kts 339°
2026-04-26 13:49 37.97204 27.19862 27939 ft 354 kts 339°
2026-04-26 13:49 37.99467 27.18614 27939 ft 355 kts 339°
2026-04-26 13:50 38.01734 27.17363 27940 ft 355 kts 339°
2026-04-26 13:50 38.04001 27.16111 27937 ft 355 kts 339°
2026-04-26 13:50 38.06269 27.14858 27941 ft 355 kts 339°
2026-04-26 13:50 38.08537 27.13604 27932 ft 356 kts 339°
2026-04-26 13:51 38.10811 27.12345 27946 ft 357 kts 339°
2026-04-26 13:51 38.13065 27.11097 27942 ft 358 kts 339°
2026-04-26 13:51 38.15355 27.09828 27933 ft 358 kts 339°
2026-04-26 13:51 38.17642 27.08560 28088 ft 361 kts 339°
2026-04-26 13:52 38.19939 27.07286 28807 ft 359 kts 339°
2026-04-26 13:52 38.22227 27.06016 29604 ft 358 kts 339°
2026-04-26 13:52 38.24510 27.04747 30224 ft 359 kts 339°
2026-04-26 13:52 38.26801 27.03473 30836 ft 358 kts 339°
2026-04-26 13:53 38.29079 27.02206 31455 ft 357 kts 339°
2026-04-26 13:53 38.31339 27.00882 32045 ft 358 kts 333°
2026-04-26 13:53 38.33309 26.98928 32666 ft 360 kts 320°
2026-04-26 13:53 38.35199 26.96842 33215 ft 359 kts 323°
2026-04-26 13:54 38.37101 26.94784 33754 ft 360 kts 322°
2026-04-26 13:54 38.39009 26.92697 34188 ft 362 kts 322°
2026-04-26 13:54 38.40919 26.90594 34582 ft 363 kts 322°
2026-04-26 13:55 38.44754 26.86355 35401 ft 366 kts 322°
2026-04-26 13:55 38.46025 26.84949 35672 ft 366 kts 321°
2026-04-26 13:55 38.50558 26.79924 35977 ft 370 kts 321°
2026-04-26 13:56 38.52477 26.77794 35975 ft 370 kts 321°
2026-04-26 13:56 38.56385 26.73453 35975 ft 373 kts 321°
2026-04-26 13:57 38.60317 26.69078 35975 ft 377 kts 321°
2026-04-26 13:57 38.64292 26.64647 35977 ft 382 kts 321°
2026-04-26 13:57 38.66308 26.62398 36157 ft 384 kts 321°
2026-04-26 13:58 38.68320 26.60152 36624 ft 383 kts 321°
2026-04-26 13:58 38.70326 26.57910 37078 ft 383 kts 321°
2026-04-26 13:58 38.72331 26.55668 37530 ft 382 kts 321°
2026-04-26 13:58 38.74327 26.53434 37970 ft 381 kts 320°
2026-04-26 13:59 38.76324 26.51198 38396 ft 380 kts 320°
2026-04-26 13:59 38.78310 26.48970 38776 ft 379 kts 320°
2026-04-26 13:59 38.80296 26.46743 39089 ft 379 kts 320°
2026-04-26 14:00 38.86410 26.40130 39445 ft 394 kts 321°
2026-04-26 14:00 38.88547 26.37867 39449 ft 402 kts 321°
2026-04-26 14:01 38.92940 26.33199 39602 ft 414 kts 321°
2026-04-26 14:01 38.93686 26.32405 39700 ft 414 kts 321°